TDRS 3 1 19548U 88091B 26255.07082737 -.00000310 00000+0 00000+0 0 9990 2 19548 12.5375 340.4204 0038529 352.3746 354.9541 1.00275382126251 HST 1 20580U 90037B 26255.21903661 .00004906 00000+0 14867-3 0 9999 2 20580 28.4730 205.3366 0001795 39.5104 320.5623 15.31621652801923 TDRS 5 1 21639U 91054B 26254.55639075 .00000074 00000+0 00000+0 0 9998 2 21639 14.0613 353.1301 0009269 252.0179 138.2405 1.00279051128588 TDRS 6 1 22314U 93003B 26254.71272152 -.00000306 00000+0 00000+0 0 9991 2 22314 14.1857 356.4041 0009562 198.6463 6.4408 1.00276161123273 TDRS 7 1 23613U 95035B 26254.69851567 -.00000252 00000+0 00000+0 0 9991 2 23613 13.3018 347.5844 0011332 99.0369 244.8034 1.00274271114111 ISS (ZARYA) 1 25544U 98067A 26255.20788499 .00004954 00000+0 97729-4 0 9996 2 25544 51.6305 229.4056 0004953 131.3152 228.8264 15.49086570585248 TERRA 1 25994U 99068A 26255.25868729 .00000231 00000+0 55821-4 0 9998 2 25994 97.9374 301.3181 0001553 353.3189 48.7649 14.61158690422325 TDRS 8 1 26388U 00034A 26254.85252899 -.00000206 00000+0 00000+0 0 9998 2 26388 12.8186 30.5680 0001573 100.7099 251.3448 1.00271493096042 TIMED 1 26998U 01055B 26255.18064071 .00000855 00000+0 80929-4 0 9991 2 26998 74.0665 59.8333 0001943 237.2040 122.8958 14.95450248343827 AQUA 1 27424U 02022A 26255.23567314 .00000499 00000+0 10895-3 0 9993 2 27424 98.4385 226.3026 0001638 70.0506 346.6067 14.62198310295996 SORCE 1 27651U 03004A 26255.13007058 .00001879 00000+0 14367-3 0 9990 2 27651 39.9900 125.4775 0018437 312.8964 47.0283 15.04097885284993 AURA 1 28376U 04026A 26255.21523274 .00000501 00000+0 11103-3 0 9998 2 28376 98.3508 212.4317 0001550 70.5005 289.6362 14.61437156178920 SWIFT 1 28485U 04047A 26255.24871021 .00130959 00000+0 65200-3 0 9999 2 28485 20.5507 228.4892 0002139 171.2867 188.7618 15.80115486200594 THEMIS A 1 30580U 07004A 26253.74363919 -.00000380 00000+0 00000+0 0 9997 2 30580 9.2785 102.1929 8336220 216.1021 39.1197 0.87844081042039 THEMIS D 1 30797U 07004D 26242.72108229 -.00000426 00000+0 00000+0 0 9995 2 30797 8.1500 76.2506 8310263 243.0983 30.3589 0.87838990041735 THEMIS E 1 30798U 07004E 26254.42962073 -.00000462 00000+0 00000+0 0 9991 2 30798 7.0770 91.6612 8419671 232.4533 20.9912 0.87839770066681 FGRST (GLAST) 1 33053U 08029A 26255.30340639 .00002452 00000+0 83961-4 0 9994 2 33053 25.5830 319.4079 0007464 274.8901 85.0785 15.24338581008993 TDRS 11 1 39070U 13004A 26255.25976154 .00000066 00000+0 00000+0 0 9996 2 39070 3.6530 32.5282 0003728 44.1323 193.8138 1.00267421047565 TDRS 12 1 39504U 14004A 26255.28610832 -.00000282 00000+0 00000+0 0 9991 2 39504 4.0690 20.4192 0006353 215.7269 177.2344 1.00270300045155 GPM-CORE 1 39574U 14009C 26255.34101250 .00008362 00000+0 18190-3 0 9998 2 39574 64.9725 16.0842 0011212 259.8217 100.1659 15.44888628711279 MMS 1 1 40482U 15011A 26255.33335647 -.00001792 00000+0 00000+0 0 9998 2 40482 72.9221 347.7877 8259914 169.3357 188.1776 0.28342593001407 MMS 2 1 40483U 15011B 26255.33335647 -.00001793 00000+0 00000+0 0 9990 2 40483 72.9265 347.7866 8262750 169.3371 188.1566 0.28342545001406 MMS 3 1 40484U 15011C 26255.33335647 -.00001793 00000+0 00000+0 0 9991 2 40484 72.9269 347.7986 8261198 169.3458 188.1309 0.28342646001402 MMS 4 1 40485U 15011D 26255.33335647 -.00001793 00000+0 00000+0 0 9992 2 40485 72.9197 347.7826 8261190 169.3555 188.1263 0.28342531001408 TDRS 13 1 42915U 17047A 26255.29200169 -.00000112 00000+0 00000+0 0 9992 2 42915 3.4826 4.8153 0013625 121.3831 318.8362 1.00271604033225 NOAA 20 (JPSS-1) 1 43013U 17073A 26255.26303691 .00000022 00000+0 31247-4 0 9993 2 43013 98.7811 193.9650 0001603 52.9174 307.2148 14.19525446456829